Skip Page Navigation
NASA JPL Caltech
NASA Logo - Jet Propulsion Laboratory + View the NASA Portal
+ Center for Near-Earth Object Studies
JPL Home Earth Solar System Stars & Galaxies Technology
JPL Solar System Dynamics
BODIES ORBITS EPHEMERIDES TOOLS PHYSICAL DATA DISCOVERY FAQ SITE MAP
IMPORTANT: The SSD Announcement email list is now available. Major changes are coming in the near future, including possible hostname and/or URL changes. To be notified of such changes, subscribe to this email list.

Please visit this page for more details.


JPL Small-Body Database Browser
Search: [ help ]  
58624 (1997 VC2)
Classification: Main-belt Asteroid          SPK-ID: 2058624
Ephemeris | Orbit Diagram | Orbital Elements | Mission Design | Physical Parameters | Discovery Circumstances ]

[ show orbit diagram ]
Orbital Elements at Epoch 2458600.5 (2019-Apr-27.0) TDB
Reference: JPL 22 (heliocentric ecliptic J2000)
 Element Value Uncertainty (1-sigma)   Units 
e .09495674868120603 4.7977e-08  
a 3.016696010069444 2.09e-08 au
q 2.730240365193683 1.5072e-07 au
i 9.654072898378233 5.0785e-06 deg
node 235.382502245792 3.1785e-05 deg
peri 195.5998753130354 4.2628e-05 deg
M 16.70862714905464 2.8348e-05 deg
tp 2458511.675245191738
(2019-Jan-28.17524519)
0.00015053 TDB
period 1913.796474462808
5.24
1.9889e-05
5.445e-08
d
yr
n .1881077767692356 1.9549e-09 deg/d
Q 3.303151654945205 2.2885e-08 au
  Orbit Determination Parameters
   # obs. used (total)      747  
   data-arc span      8073 days (22.10 yr)  
   first obs. used      1997-10-29  
   last obs. used      2019-12-06  
   planetary ephem.      DE431  
   SB-pert. ephem.      SB431-N16  
   condition code      0  
   norm. resid. RMS      .57425  
   source      ORB  
   producer      Otto Matic  
   solution date      2019-Dec-14 06:02:45  

Additional Information
 Earth MOID = 1.74543 au 
 Jupiter MOID = 2.00328 au 
 T_jup = 3.219 
[ show covariance matrix ]

Ephemeris | Orbit Diagram | Orbital Elements | Mission Design | Physical Parameters | Discovery Circumstances ]

Physical Parameter Table
Parameter Symbol Value Units Sigma Reference Notes
absolute magnitude H 14.3   n/a MPO385193  
diameter diameter 4.952 km 0.172 urn:nasa:pds:neowise_diameters_albedos::2.0[mainbelt] (http://adsabs.harvard.edu/abs/2011ApJ...741...68M)  
geometric albedo albedo 0.104   0.019 urn:nasa:pds:neowise_diameters_albedos::2.0[mainbelt] (http://adsabs.harvard.edu/abs/2011ApJ...741...68M)  

58624 (1997 VC2)          Discovered 1997-Nov-01 by Kobayashi, T. at Oizumi
Reference: 20030614/Numbers.arcLast Updated: 2004-04-19

Alternate Designations
 1997 VC2 = 2000 JB14 
Ephemeris | Orbit Diagram | Orbital Elements | Mission Design | Physical Parameters | Discovery Circumstances ]
ABOUT SSD CREDITS/AWARDS PRIVACY/COPYRIGHT GLOSSARY LINKS
FirstGov 2020-Jan-19 13:16 UT
(server date/time)  
NASA Home Page
Site Manager:   Ryan S. Park
Webmaster  Alan B. Chamberlin